STARLINK-32637, 62032

Orbit data source: Space-Track

STARLINK-32637, 62032 is a payload satellite owned by SpaceX/Seattle (US) in LEO that was launched on Thu, 21 Nov 2024 UTC via an FALCON 9 launch vehicle from the Air Force Eastern Test Range (AFETR). Payload-class satellites include a variety of spacecraft equipped with specific instruments for various scientific and technological missions. These include communications satellites like Starlink; space stations such as the ISS; scientific satellites like the Hubble; Earth observation satellites from companies like Planet Labs, Umbra, and HawkEye 360; GPS; miniature CubeSats for education and research; and military/defense satellites.

Loading next visibility...
Identifier
62032, 2024-216A
Orbit
LEO
Country
Flag of USUS
Related business
Manufacturer
SpaceX/Seattle
Mission
Operational Commercial Communications
Bus & Motor
STARLINK V2M, Unknown motor
Mass
730 kg wet, ~700 kg dry
Launch date (UTC)
2024-11-21 (2 years ago)
Launch vehicle
FALCON 9
Launch site
Air Force Eastern Test Range (AFETR)
Object type
Payload
Rocket body
Debris
Shape & HBR
Box + 2 Pan, 17.7 m
Radar Cross Section
33.884 m², Large (>1 m²)

Expand to show TLE details & history
Last TLE update: 14 hours ago

TLE from 14 hours ago
0 STARLINK-32637
1 62032U 24216A   26236.49384633  .00011361  00000-0  42159-3 0  9993
2 62032  42.9985  28.2575 0001285 238.8034 121.2692 15.27589458 99549
Epoch: 2026-08-24T11:51Z
TLE epoch observation values (Epoch: 2026-08-24T11:51:08.322Z)
Latitude
-0.00002°
Longitude
-122.30194°
Altitude
483.254 km
Speed
7.625 km/s
True Right ascension
01h 53m 01s
True Declination
0° 00' 00"
Sunlit
Object was in full shadow at epoch
Visualization orbit readout
Latitude
Unknown
Longitude
Unknown
Altitude
Unknown
Speed
Unknown
Apparent Right ascension
Unknown
Apparent Declination
Unknown
Sunlit
N/A
Visualization observer readout
Local Sidereal Time
17:06:33
Azimuth
Unknown
Elevation
Unknown
Doppler factor
Unknown
Orbital elements
Apogee altitude
485.848 km
Perigee altitude
484.084 km
Semi-major axis
6,863.103 km
Eccentricity
0.00013
Inclination
42.9985°
RAAN
28.2575°
Arg. of periapsis
238.8034°
True anomaly
121.28178°
Mean anomaly
121.2692°
Eccentric anomaly
121.27549°
Mean motion
3.81735 °/min
Orbital period
94.31 mins
BSTAR
0.00042159
Loading maneuver chart data...
Computing Atmospheric mass density...
Loading historical data...
Loading historical data...
Loading historical data...
Loading historical data...
Loading historical data...
Loading historical data...
Loading historical data...

Documentation

Showing up to 5 results
|